AFL1775 UUOB-UHMD

Flight info

Callsign AFL1775
Flight time N/A
Altitude 32000
Route MEBUP1V MEBUP M853 TUMIT N156 SUPUD/K0898F330 N156 UNBEL T540 RANTO T753 NRM DCT 71N058E DCT GAMRI/K0902F350 DCT GAMRI W72 MELAM W85 KUTET DCT 80N122E 79N152E 75N170E/K0896F370 DCT VATUL DCT VATUL/K0898F360 W88 PEMID/K0902F370 M182 DENUK DCT DEGIR DEGIR1F
Aircraft B77L/H-SDE1E2E3FGHIJ2J3J4J5M1RWXY/LB1D1

Departure

Time 2026-04-17 19:36
Airport Belgorod International Airport (UUOB)

Arrival

Time N/A
Airport Provideniya Bay Airport (UHMD)
Time Latitude Longitude Altitude Speed Heading
2026-04-17 19:15 50.64567 36.57177 0 ft 0 kts 75°
2026-04-17 19:31 50.64576 36.57230 746 ft 15 kts 74°
2026-04-17 19:31 50.64632 36.57409 744 ft 15 kts 28°
2026-04-17 19:31 50.64695 36.57475 743 ft 6 kts 82°
2026-04-17 19:32 50.64675 36.57585 742 ft 18 kts 116°
2026-04-17 19:32 50.64606 36.57796 743 ft 22 kts 117°
2026-04-17 19:32 50.64534 36.58012 741 ft 22 kts 117°
2026-04-17 19:32 50.64461 36.58228 738 ft 22 kts 120°
2026-04-17 19:33 50.64441 36.58384 737 ft 13 kts 27°
2026-04-17 19:33 50.64543 36.58503 738 ft 24 kts 82°
2026-04-17 19:33 50.64457 36.58781 734 ft 34 kts 114°
2026-04-17 19:33 50.64335 36.59158 733 ft 44 kts 118°
2026-04-17 19:34 50.64187 36.59615 728 ft 47 kts 117°
2026-04-17 19:34 50.64043 36.60050 722 ft 43 kts 117°
2026-04-17 19:34 50.63913 36.60439 718 ft 38 kts 117°
2026-04-17 19:34 50.63810 36.60653 717 ft 7 kts 75°
2026-04-17 19:35 50.63856 36.60625 719 ft 8 kts 295°
2026-04-17 19:35 50.63862 36.60603 718 ft 0 kts 297°
2026-04-17 19:35 50.63872 36.60574 717 ft 24 kts 297°
2026-04-17 19:36 50.64095 36.59896 725 ft 113 kts 297°
2026-04-17 19:36 50.64583 36.58409 745 ft 190 kts 296°
2026-04-17 19:36 50.65177 36.56534 1682 ft 176 kts 298°
2026-04-17 19:36 50.65963 36.55135 2733 ft 186 kts 330°
2026-04-17 19:37 50.67304 36.54875 2870 ft 212 kts 16°
2026-04-17 19:37 50.68571 36.56234 3105 ft 233 kts 43°
2026-04-17 19:37 50.69811 36.58074 3406 ft 254 kts 39°
2026-04-17 19:37 50.71203 36.59832 3954 ft 265 kts 35°
2026-04-17 19:38 50.72754 36.61507 4612 ft 275 kts 32°
2026-04-17 19:38 50.74424 36.63087 5340 ft 282 kts 29°
2026-04-17 19:38 50.76158 36.64564 6110 ft 286 kts 27°
2026-04-17 19:38 50.77954 36.65978 6853 ft 291 kts 26°
2026-04-17 19:39 50.79801 36.67352 7569 ft 295 kts 25°
2026-04-17 19:39 50.81667 36.68687 8279 ft 299 kts 24°
2026-04-17 19:39 50.83590 36.70029 9019 ft 303 kts 23°
2026-04-17 19:39 50.85546 36.71374 9736 ft 307 kts 22°
2026-04-17 19:40 50.87511 36.72712 10041 ft 314 kts 22°
2026-04-17 19:40 50.89538 36.74086 10021 ft 316 kts 22°
2026-04-17 19:40 50.91555 36.75450 10008 ft 313 kts 22°
2026-04-17 19:40 50.93549 36.76799 10001 ft 310 kts 22°
2026-04-17 19:41 50.95530 36.78138 10003 ft 308 kts 22°
2026-04-17 19:41 50.97507 36.79476 10003 ft 308 kts 22°
2026-04-17 19:41 50.99454 36.80793 10004 ft 308 kts 22°
2026-04-17 19:41 51.01432 36.82133 10020 ft 308 kts 22°
2026-04-17 19:42 51.03410 36.83475 10020 ft 309 kts 22°
2026-04-17 19:42 51.05384 36.84814 10019 ft 309 kts 22°
2026-04-17 19:42 51.07371 36.86164 10015 ft 310 kts 22°
2026-04-17 19:42 51.09336 36.87500 10019 ft 311 kts 22°
2026-04-17 19:43 51.11336 36.88831 10013 ft 311 kts 19°
2026-04-17 19:43 51.13381 36.89951 10013 ft 311 kts 16°
2026-04-17 19:43 51.15452 36.90982 10021 ft 312 kts 16°
2026-04-17 19:43 51.17534 36.92007 10007 ft 312 kts 16°
2026-04-17 19:44 51.19610 36.93042 10010 ft 313 kts 16°
2026-04-17 19:44 51.21664 36.94077 10013 ft 313 kts 16°
2026-04-17 19:44 51.23742 36.95133 10007 ft 313 kts 17°
2026-04-17 19:44 51.25830 36.96200 10078 ft 319 kts 17°
2026-04-17 19:45 51.28025 36.97324 10296 ft 342 kts 17°
2026-04-17 19:45 51.30379 36.98534 10481 ft 367 kts 17°
2026-04-17 19:45 51.32851 36.99807 10788 ft 387 kts 17°
2026-04-17 19:45 51.35448 37.01150 11415 ft 396 kts 17°
2026-04-17 19:46 51.38098 37.02519 12192 ft 402 kts 17°
2026-04-17 19:46 51.40785 37.03914 13020 ft 406 kts 17°
2026-04-17 19:46 51.43469 37.05312 13819 ft 410 kts 17°
2026-04-17 19:46 51.46212 37.06743 14525 ft 415 kts 17°
2026-04-17 19:47 51.48953 37.08175 15174 ft 419 kts 17°
2026-04-17 19:47 51.51751 37.09637 15831 ft 424 kts 17°
2026-04-17 19:47 51.54577 37.11115 16491 ft 429 kts 17°
2026-04-17 19:47 51.57395 37.12590 17128 ft 433 kts 16°
2026-04-17 19:48 51.60329 37.13832 17754 ft 437 kts
2026-04-17 19:48 51.63348 37.14528 18372 ft 440 kts
2026-04-17 19:48 51.66413 37.14719 18917 ft 442 kts 355°
2026-04-17 19:48 51.68455 37.14618 19292 ft 443 kts 354°
2026-04-17 19:49 51.72567 37.14341 20030 ft 448 kts 354°
2026-04-17 19:49 51.75691 37.14141 20578 ft 452 kts 354°
2026-04-17 19:49 51.78854 37.13971 21136 ft 456 kts 354°
2026-04-17 19:49 51.82046 37.13817 21691 ft 460 kts 354°
2026-04-17 19:50 51.84173 37.13718 22053 ft 462 kts 354°
2026-04-17 19:50 51.87398 37.13560 22581 ft 466 kts 354°
2026-04-17 19:50 51.90659 37.13396 23101 ft 470 kts 353°
2026-04-17 19:50 51.95031 37.13175 23752 ft 476 kts 353°
2026-04-17 19:51 51.97276 37.13063 24045 ft 478 kts 353°
2026-04-17 19:51 52.00613 37.12899 24513 ft 480 kts 353°
2026-04-17 19:51 52.03919 37.12737 24977 ft 483 kts 353°
2026-04-17 19:51 52.07289 37.12572 25453 ft 485 kts 353°
2026-04-17 19:52 52.10676 37.12405 25887 ft 488 kts 353°
2026-04-17 19:52 52.15344 37.12174 26477 ft 492 kts 353°
2026-04-17 19:52 52.29228 37.11486 28236 ft 501 kts 353°
2026-04-17 19:52 52.43090 37.10802 29783 ft 508 kts 353°
2026-04-17 19:53 52.57231 37.10172 31330 ft 506 kts 354°
2026-04-17 19:53 52.62218 37.09947 31904 ft 503 kts 354°
2026-04-17 19:53 52.65669 37.09794 32734 ft 490 kts 354°
2026-04-17 19:53 52.69058 37.09645 33022 ft 482 kts 354°
2026-04-17 19:54 52.72377 37.09497 32983 ft 471 kts 354°
2026-04-17 19:54 52.78790 37.09201 32995 ft 461 kts 354°
2026-04-17 19:55 52.85187 37.08896 33001 ft 459 kts 354°
2026-04-17 19:55 52.91574 37.08595 32994 ft 458 kts 354°
2026-04-17 19:56 52.97907 37.08300 33006 ft 457 kts 354°
2026-04-17 19:56 53.04271 37.08003 33004 ft 457 kts 354°
2026-04-17 19:57 53.10602 37.07708 33001 ft 457 kts 354°
2026-04-17 19:57 53.16954 37.07410 33008 ft 458 kts 354°
2026-04-17 19:58 53.23343 37.07109 33009 ft 459 kts 355°
2026-04-17 19:58 53.29736 37.06808 33000 ft 460 kts 355°
2026-04-17 19:59 53.36110 37.06508 33001 ft 461 kts 355°
2026-04-17 19:59 53.42528 37.06204 33000 ft 462 kts 355°
2026-04-17 20:00 53.48958 37.05898 32998 ft 462 kts 355°
2026-04-17 20:00 53.55394 37.05602 32998 ft 462 kts 356°
2026-04-17 20:01 53.61805 37.06493 32995 ft 465 kts
2026-04-17 20:01 53.68203 37.08250 33005 ft 466 kts
2026-04-17 20:02 53.74577 37.10021 33001 ft 466 kts
2026-04-17 20:02 53.80989 37.11748 32995 ft 465 kts
2026-04-17 20:03 53.87352 37.13438 32992 ft 465 kts
2026-04-17 20:03 53.93748 37.15139 32985 ft 465 kts
2026-04-17 20:04 54.00144 37.16846 32993 ft 464 kts
2026-04-17 20:04 54.06497 37.18547 32991 ft 464 kts
2026-04-17 20:05 54.12884 37.20264 32992 ft 463 kts
2026-04-17 20:05 54.19226 37.21975 32989 ft 463 kts
2026-04-17 20:06 54.25599 37.23699 32987 ft 463 kts
2026-04-17 20:06 54.31922 37.25415 32990 ft 462 kts
2026-04-17 20:07 54.38288 37.27148 32990 ft 462 kts
2026-04-17 20:07 54.44592 37.28869 32988 ft 461 kts
2026-04-17 20:08 54.50933 37.30606 32992 ft 460 kts
2026-04-17 20:08 54.57263 37.32345 32984 ft 460 kts
2026-04-17 20:09 54.63536 37.34189 32997 ft 460 kts
2026-04-17 20:09 54.69832 37.36368 32986 ft 459 kts
2026-04-17 20:10 54.76069 37.38461 32992 ft 459 kts
2026-04-17 20:10 54.82342 37.40538 32991 ft 458 kts
2026-04-17 20:11 54.88617 37.42622 32993 ft 458 kts
2026-04-17 20:11 54.94854 37.44705 32991 ft 458 kts
2026-04-17 20:12 55.01090 37.46797 32988 ft 458 kts
2026-04-17 20:12 55.07349 37.48903 32989 ft 457 kts
2026-04-17 20:13 55.13613 37.51019 32993 ft 457 kts 10°
2026-04-17 20:13 55.19829 37.53142 32989 ft 457 kts 10°
2026-04-17 20:14 55.24305 37.54675 32993 ft 457 kts 10°
2026-04-17 20:14 55.30544 37.56817 32991 ft 456 kts 10°
2026-04-17 20:15 55.36746 37.58950 32992 ft 456 kts 10°
2026-04-17 20:15 55.42981 37.61104 32989 ft 456 kts 10°
2026-04-17 20:16 55.49182 37.63253 32994 ft 456 kts 10°
2026-04-17 20:16 55.55420 37.65421 32993 ft 455 kts 10°
2026-04-17 20:17 55.61645 37.67591 32983 ft 455 kts 10°
2026-04-17 20:17 55.67859 37.69494 32982 ft 454 kts
2026-04-17 20:18 55.74146 37.70810 32978 ft 453 kts
2026-04-17 20:18 55.80376 37.72085 32973 ft 453 kts
2026-04-17 20:19 55.86634 37.73423 32965 ft 453 kts
2026-04-17 20:19 55.92897 37.74781 32977 ft 452 kts
2026-04-17 20:20 55.99156 37.76142 32965 ft 452 kts
2026-04-17 20:20 56.05371 37.77494 32967 ft 452 kts
2026-04-17 20:21 56.11619 37.78856 32966 ft 452 kts
2026-04-17 20:21 56.17875 37.80224 32957 ft 452 kts
2026-04-17 20:22 56.24088 37.81589 32953 ft 452 kts
2026-04-17 20:22 56.30336 37.82966 32953 ft 452 kts
2026-04-17 20:23 56.36590 37.84349 32960 ft 452 kts
2026-04-17 20:23 56.42796 37.85725 32955 ft 452 kts